�������l�o���
Date,Time,MP-1(��Sv/h),MP-2(��Sv/h),MP-3(��Sv/h),MP-4(��Sv/h),MP-5(��Sv/h),MP-6(��Sv/h),MP-7(��Sv/h),MP-8(��Sv/h),����,����(m/s),���J
2023/08/17,00:00,0.536,0.806,0.495,0.980,0.717,0.324,0.573,0.532,��,9.6,��
2023/08/17,00:10,0.536,0.805,0.494,0.979,0.716,0.321,0.572,0.530,��,8.8,��
2023/08/17,00:20,0.534,0.805,0.494,0.979,0.718,0.323,0.572,0.534,��,7.9,��
2023/08/17,00:30,0.534,0.806,0.496,0.977,0.719,0.323,0.572,0.530,��,8.1,��
2023/08/17,00:40,0.536,0.807,0.496,0.981,0.718,0.322,0.573,0.532,��,8.6,��
2023/08/17,00:50,0.536,0.806,0.496,0.980,0.717,0.323,0.572,0.531,��,8.1,��
2023/08/17,01:00,0.535,0.808,0.496,0.980,0.717,0.322,0.572,0.531,��,7.6,��
2023/08/17,01:10,0.534,0.805,0.495,0.980,0.716,0.323,0.571,0.531,��,7.5,��
2023/08/17,01:20,0.535,0.805,0.496,0.979,0.717,0.321,0.572,0.533,��,8.5,��
2023/08/17,01:30,0.536,0.804,0.496,0.979,0.716,0.322,0.573,0.531,��,8.8,��
2023/08/17,01:40,0.535,0.806,0.496,0.980,0.716,0.324,0.571,0.531,��,9.1,��
2023/08/17,01:50,0.535,0.804,0.497,0.980,0.716,0.322,0.572,0.529,��,7.2,��
2023/08/17,02:00,0.535,0.805,0.496,0.979,0.717,0.323,0.572,0.533,��,7.7,��
2023/08/17,02:10,0.535,0.806,0.496,0.979,0.719,0.322,0.572,0.532,��,7.4,��
2023/08/17,02:20,0.536,0.805,0.496,0.979,0.717,0.322,0.573,0.531,��,6.5,��
2023/08/17,02:30,0.535,0.807,0.496,0.980,0.717,0.321,0.573,0.533,��,7.2,��
2023/08/17,02:40,0.537,0.806,0.495,0.980,0.718,0.322,0.571,0.531,��,8.0,��
2023/08/17,02:50,0.535,0.805,0.495,0.980,0.717,0.322,0.573,0.531,��,6.9,��
2023/08/17,03:00,0.536,0.807,0.494,0.979,0.717,0.323,0.573,0.532,��,7.4,��
2023/08/17,03:10,0.534,0.806,0.494,0.981,0.716,0.322,0.572,0.532,��,6.7,��
2023/08/17,03:20,0.535,0.805,0.494,0.980,0.716,0.322,0.572,0.532,��,6.7,��
2023/08/17,03:30,0.534,0.808,0.496,0.978,0.719,0.322,0.570,0.531,��,5.9,��
2023/08/17,03:40,0.536,0.809,0.496,0.980,0.719,0.323,0.573,0.529,��,6.7,��
2023/08/17,03:50,0.534,0.809,0.495,0.981,0.717,0.322,0.572,0.531,��,6.1,��
2023/08/17,04:00,0.535,0.806,0.497,0.979,0.718,0.322,0.571,0.533,��쓌,6.3,��
2023/08/17,04:10,0.535,0.806,0.496,0.981,0.717,0.321,0.574,0.530,��,6.5,��
2023/08/17,04:20,0.534,0.806,0.496,0.978,0.716,0.322,0.571,0.531,��,7.4,��
2023/08/17,04:30,0.535,0.806,0.495,0.980,0.718,0.322,0.573,0.530,��,7.0,��
2023/08/17,04:40,0.535,0.805,0.496,0.981,0.716,0.322,0.571,0.531,��,6.0,��
2023/08/17,04:50,0.537,0.808,0.496,0.982,0.717,0.322,0.571,0.532,��,5.3,��
2023/08/17,05:00,0.535,0.806,0.495,0.980,0.717,0.321,0.571,0.531,��,5.3,��
2023/08/17,05:10,0.534,0.808,0.496,0.980,0.716,0.322,0.572,0.533,��,5.2,��
2023/08/17,05:20,0.536,0.807,0.495,0.979,0.716,0.322,0.572,0.531,��,5.5,��
2023/08/17,05:30,0.537,0.807,0.496,0.980,0.717,0.322,0.571,0.529,��,6.3,��
2023/08/17,05:40,0.536,0.806,0.496,0.981,0.715,0.323,0.571,0.533,��,5.6,��
2023/08/17,05:50,0.536,0.808,0.496,0.981,0.718,0.322,0.570,0.531,��,5.2,��
2023/08/17,06:00,0.535,0.807,0.496,0.978,0.717,0.323,0.573,0.532,��,4.7,��
2023/08/17,06:10,0.534,0.806,0.497,0.981,0.718,0.323,0.572,0.531,��,4.2,��
2023/08/17,06:20,0.535,0.807,0.495,0.980,0.717,0.322,0.573,0.532,��,5.2,��
2023/08/17,06:30,0.536,0.805,0.495,0.981,0.717,0.322,0.571,0.532,��,4.5,��
2023/08/17,06:40,0.535,0.807,0.495,0.980,0.717,0.322,0.572,0.530,��,4.8,��
2023/08/17,06:50,0.535,0.806,0.495,0.981,0.716,0.323,0.573,0.531,��,4.9,��
2023/08/17,07:00,0.537,0.806,0.496,0.982,0.719,0.323,0.572,0.531,��,4.6,��
2023/08/17,07:10,0.534,0.806,0.497,0.982,0.718,0.323,0.573,0.533,��,4.7,��
2023/08/17,07:20,0.536,0.804,0.495,0.980,0.717,0.323,0.571,0.533,��,4.2,��
2023/08/17,07:30,0.537,0.806,0.495,0.981,0.717,0.323,0.572,0.532,��,5.2,��
2023/08/17,07:40,0.536,0.803,0.496,0.980,0.716,0.321,0.572,0.531,��,5.1,��
2023/08/17,07:50,0.534,0.806,0.495,0.982,0.717,0.323,0.573,0.532,��,4.5,��
2023/08/17,08:00,0.534,0.806,0.494,0.981,0.716,0.323,0.572,0.533,��,4.5,��
2023/08/17,08:10,0.534,0.807,0.494,0.980,0.717,0.323,0.572,0.533,��,4.6,��
2023/08/17,08:20,0.536,0.808,0.496,0.980,0.717,0.321,0.573,0.532,��쓌,4.5,��
2023/08/17,08:30,0.535,0.805,0.496,0.983,0.717,0.321,0.573,0.532,��쓌,5.7,��
2023/08/17,08:40,0.535,0.807,0.495,0.980,0.718,0.323,0.575,0.532,��쓌,6.7,��
2023/08/17,08:50,0.537,0.807,0.495,0.981,0.717,0.322,0.574,0.530,��,5.9,��
2023/08/17,09:00,0.535,0.807,0.494,0.983,0.717,0.323,0.574,0.529,��쓌,6.9,��
2023/08/17,09:10,0.536,0.808,0.496,0.982,0.718,0.322,0.573,0.531,��쓌,6.8,��
2023/08/17,09:20,0.535,0.805,0.495,0.983,0.717,-,0.572,0.531,��쓌,7.7,��
2023/08/17,09:30,0.537,0.808,0.496,0.984,0.717,-,0.572,0.531,��쓌,7.3,��
2023/08/17,09:40,0.536,0.807,0.495,0.984,0.719,-,0.571,0.532,��쓌,8.5,��
2023/08/17,09:50,0.536,0.808,0.497,0.982,0.721,-,0.571,0.530,��쓌,8.5,��
2023/08/17,10:00,0.537,0.808,0.497,0.983,0.721,-,0.571,0.532,��쓌,9.2,��
2023/08/17,10:10,0.536,0.808,0.496,0.985,0.720,-,0.571,0.531,��쓌,8.4,��
2023/08/17,10:20,0.538,0.809,0.495,0.984,0.720,-,0.570,0.532,��쓌,9.8,��
2023/08/17,10:30,0.537,0.809,0.495,0.985,0.719,-,0.572,0.530,��쓌,11.4,��
2023/08/17,10:40,0.536,0.809,0.497,0.983,0.720,-,0.571,0.531,��쓌,10.5,��
2023/08/17,10:50,0.538,0.808,0.496,0.986,0.720,-,0.573,0.532,��쓌,10.0,��
2023/08/17,11:00,0.536,0.810,0.498,0.986,0.720,-,0.573,0.531,��쓌,9.7,��
2023/08/17,11:10,0.538,0.809,0.497,0.985,0.722,-,0.574,0.531,��쓌,10.2,��
2023/08/17,11:20,0.538,0.812,0.496,0.985,0.721,-,0.573,0.532,��쓌,9.5,��
2023/08/17,11:30,0.537,0.812,0.495,0.985,0.721,-,0.573,0.531,��쓌,10.3,��
2023/08/17,11:40,0.538,0.810,0.497,0.986,0.723,-,0.573,0.533,��쓌,10.0,��
2023/08/17,11:50,0.536,0.811,0.497,0.985,0.722,0.322,0.572,0.532,��쓌,11.3,��
2023/08/17,12:00,0.538,0.811,0.498,0.985,0.723,0.323,0.573,0.532,��쓌,9.9,��
2023/08/17,12:10,0.537,0.812,0.496,0.984,0.724,0.322,0.572,0.532,��쓌,10.9,��
2023/08/17,12:20,0.538,0.813,0.498,0.984,0.722,0.321,0.571,0.534,��쓌,9.9,��
2023/08/17,12:30,0.539,0.810,0.497,0.982,0.724,0.323,0.573,0.533,��쓌,10.0,��
2023/08/17,12:40,0.538,0.814,0.498,0.985,0.724,0.322,0.573,0.532,��쓌,11.9,��
2023/08/17,12:50,0.538,0.813,0.499,0.985,0.723,0.325,0.573,0.534,��쓌,13.8,��
2023/08/17,13:00,0.540,0.815,0.497,0.985,0.725,0.323,0.573,0.533,��쓌,12.7,��
2023/08/17,13:10,0.539,0.812,0.498,0.987,0.724,0.324,0.574,0.533,��쓌,12.2,��
2023/08/17,13:20,0.537,0.812,0.498,0.989,0.725,0.322,0.575,0.534,��쓌,11.3,��
2023/08/17,13:30,0.540,0.813,0.497,0.987,0.725,0.324,0.575,0.534,��쓌,12.4,��
2023/08/17,13:40,0.540,0.813,0.498,0.986,0.726,0.323,0.574,0.534,��쓌,13.0,��
2023/08/17,13:50,0.539,0.813,0.499,0.987,0.725,0.322,0.577,0.533,��쓌,11.8,��
2023/08/17,14:00,0.539,0.812,0.499,0.989,0.726,0.324,0.576,0.532,��쓌,12.7,��
2023/08/17,14:10,0.540,0.812,0.498,0.989,0.725,0.323,0.575,0.534,��쓌,12.1,��
2023/08/17,14:20,0.540,0.813,0.498,0.988,0.727,0.323,0.575,0.533,��쓌,12.4,��
2023/08/17,14:30,0.540,0.814,0.498,0.989,0.726,0.323,0.576,0.532,��쓌,11.6,��
2023/08/17,14:40,0.539,0.814,0.499,0.989,0.728,0.324,0.575,0.533,��쓌,12.0,��
2023/08/17,14:50,0.540,0.814,0.498,0.987,0.728,0.323,0.577,0.533,��쓌,9.2,��
2023/08/17,15:00,0.538,0.815,0.500,0.990,0.727,0.323,0.575,0.532,��쓌,11.6,��
2023/08/17,15:10,0.538,0.814,0.497,0.988,0.727,0.324,0.576,0.532,��,10.3,��
2023/08/17,15:20,0.539,0.815,0.499,0.988,0.727,0.323,0.576,0.532,��쓌,12.2,��
2023/08/17,15:30,0.539,0.816,0.498,0.987,0.728,0.322,0.575,0.532,��쓌,11.7,��
2023/08/17,15:40,0.539,0.814,0.500,0.989,0.724,0.322,0.575,0.531,��쓌,11.6,��
2023/08/17,15:50,0.541,0.816,0.501,0.988,0.728,0.323,0.575,0.533,��쓌,12.0,��
2023/08/17,16:00,0.539,0.816,0.497,0.988,0.727,0.323,0.575,0.533,��쓌,12.5,��
2023/08/17,16:10,0.540,0.814,0.499,0.986,0.726,0.322,0.575,0.532,��,9.5,��
2023/08/17,16:20,0.541,0.815,0.500,0.987,0.727,0.322,0.574,0.531,��쓌,10.5,��
2023/08/17,16:30,0.540,0.816,0.498,0.989,0.727,0.322,0.573,0.531,��쓌,10.7,��
2023/08/17,16:40,0.541,0.816,0.498,0.990,0.728,0.323,0.574,0.532,��쓌,9.9,��
2023/08/17,16:50,0.539,0.815,0.499,0.988,0.728,0.323,0.574,0.532,��쓌,9.3,��
2023/08/17,17:00,0.542,0.814,0.499,0.990,0.727,0.324,0.574,0.533,��쓌,7.6,��
2023/08/17,17:10,0.540,0.815,0.499,0.991,0.728,0.323,0.574,0.532,��쓌,9.5,��
2023/08/17,17:20,0.542,0.817,0.497,0.992,0.727,0.324,0.575,0.533,��쓌,9.3,��
2023/08/17,17:30,0.540,0.815,0.500,0.992,0.727,0.323,0.574,0.533,��쓌,8.5,��
2023/08/17,17:40,0.539,0.813,0.499,0.990,0.728,0.323,0.575,0.532,��,8.1,��
2023/08/17,17:50,0.540,0.815,0.497,0.990,0.728,0.324,0.572,0.533,��쓌,8.6,��
2023/08/17,18:00,0.540,0.815,0.499,0.989,0.727,0.324,0.573,0.532,��,8.0,��
2023/08/17,18:10,0.541,0.817,0.497,0.992,0.726,0.324,0.573,0.533,��,9.3,��
2023/08/17,18:20,0.541,0.814,0.499,0.991,0.728,0.323,0.573,0.532,��,8.2,��
2023/08/17,18:30,0.539,0.814,0.501,0.993,0.727,0.325,0.572,0.533,��,8.0,��
2023/08/17,18:40,0.539,0.815,0.499,0.992,0.729,0.325,0.575,0.533,��,6.8,��
2023/08/17,18:50,0.541,0.815,0.498,0.992,0.730,0.323,0.574,0.533,��,6.4,��
2023/08/17,19:00,0.541,0.817,0.498,0.992,0.728,0.324,0.574,0.533,��쐼,5.3,��
2023/08/17,19:10,0.542,0.817,0.498,0.990,0.729,0.325,0.573,0.531,��,4.7,��
2023/08/17,19:20,0.540,0.815,0.500,0.991,0.727,0.324,0.573,0.534,��쐼,4.2,��
2023/08/17,19:30,0.541,0.818,0.500,0.992,0.727,0.324,0.575,0.532,��쐼,3.8,��
2023/08/17,19:40,0.541,0.815,0.499,0.993,0.728,0.324,0.574,0.532,��,3.9,��
2023/08/17,19:50,0.540,0.816,0.500,0.990,0.730,0.325,0.574,0.532,��,3.1,��
2023/08/17,20:00,0.540,0.816,0.499,0.991,0.729,0.325,0.575,0.533,��,4.2,��
2023/08/17,20:10,0.540,0.817,0.499,0.990,0.729,0.323,0.574,0.534,��,3.8,��
2023/08/17,20:20,0.541,0.816,0.499,0.989,0.729,0.324,0.574,0.533,��,3.1,��
2023/08/17,20:30,0.542,0.818,0.499,0.991,0.730,0.323,0.573,0.534,��,2.0,��
2023/08/17,20:40,0.542,0.816,0.500,0.989,0.729,0.324,0.573,0.532,��쓌,3.4,��
2023/08/17,20:50,0.541,0.816,0.499,0.990,0.729,0.324,0.574,0.532,��쓌,2.5,�L
2023/08/17,21:00,0.534,0.786,0.493,0.983,0.724,0.324,0.575,0.533,��쐼,1.1,�L
2023/08/17,21:10,0.526,0.773,0.487,0.972,0.721,0.324,0.572,0.533,��쓌,2.0,�L
2023/08/17,21:20,0.520,0.774,0.487,0.971,0.720,0.324,0.573,0.532,��쓌,2.0,�L
2023/08/17,21:30,0.523,0.778,0.489,0.972,0.720,0.323,0.573,0.534,��,2.6,�L
2023/08/17,21:40,0.521,0.779,0.486,0.969,0.719,0.323,0.572,0.534,���쓌,2.6,�L
2023/08/17,21:50,0.519,0.769,0.485,0.960,0.712,0.323,0.573,0.532,�쓌,3.7,�L
2023/08/17,22:00,0.517,0.771,0.484,0.959,0.711,0.325,0.573,0.532,��쐼,2.9,�L
2023/08/17,22:10,0.518,0.774,0.485,0.958,0.710,0.323,0.574,0.533,��,1.5,�L
2023/08/17,22:20,0.519,0.776,0.483,0.961,0.710,0.324,0.575,0.531,��쓌,2.9,�L
2023/08/17,22:30,0.521,0.775,0.485,0.960,0.709,0.324,0.574,0.532,��,2.9,�L
2023/08/17,22:40,0.520,0.774,0.484,0.960,0.710,0.322,0.574,0.533,�쐼,1.7,��
2023/08/17,22:50,0.520,0.774,0.482,0.960,0.709,0.323,0.574,0.533,���쐼,1.1,��
2023/08/17,23:00,0.519,0.777,0.484,0.960,0.711,0.323,0.574,0.531,-,CALM,��
2023/08/17,23:10,0.520,0.777,0.483,0.959,0.711,0.323,0.575,0.534,��,0.6,��
2023/08/17,23:20,0.518,0.777,0.483,0.961,0.710,0.323,0.574,0.531,���k��,0.6,��
2023/08/17,23:30,0.520,0.778,0.483,0.960,0.710,0.323,0.574,0.534,���k��,0.9,��
2023/08/17,23:40,0.521,0.778,0.483,0.958,0.710,0.322,0.574,0.533,�k��,1.5,��
2023/08/17,23:50,0.522,0.776,0.484,0.959,0.710,0.322,0.574,0.533,���k��,1.2,��
